Time,TemperatureF,DewpointF,PressureIn,WindDirection,WindDirectionDegrees,WindSpeedMPH,WindSpeedGustMPH,Humidity,HourlyPrecipIn,Conditions,Clouds,dailyrainin,SoftwareType,DateUTC
2013-05-31 00:00:00,69.4,65.7,27.65,West,267,0.0,0.0,88,0.00,,,0.02,Wunderground v.1.15,2013-05-31 04:00:00,
2013-05-31 00:05:00,69.2,65.5,27.65,West,267,0.0,0.0,88,0.00,,,0.00,Wunderground v.1.15,2013-05-31 04:05:00,
2013-05-31 00:10:00,69.1,65.7,27.65,West,267,0.0,0.0,89,0.00,,,0.00,Wunderground v.1.15,2013-05-31 04:10:00,
2013-05-31 00:15:00,69.0,65.6,27.65,West,267,0.0,0.0,89,0.00,,,0.00,Wunderground v.1.15,2013-05-31 04:15:00,
2013-05-31 00:20:00,68.8,65.4,27.65,West,267,0.0,0.0,89,0.00,,,0.00,Wunderground v.1.15,2013-05-31 04:20:00,
2013-05-31 00:25:00,68.7,65.3,27.65,West,267,0.0,0.0,89,0.00,,,0.00,Wunderground v.1.15,2013-05-31 04:25:00,
2013-05-31 00:30:00,68.6,65.2,27.65,West,267,0.0,0.0,89,0.00,,,0.00,Wunderground v.1.15,2013-05-31 04:30:00,
2013-05-31 00:40:00,68.3,65.3,27.65,West,267,0.0,0.0,90,0.00,,,0.00,Wunderground v.1.15,2013-05-31 04:40:00,
2013-05-31 00:45:00,68.1,65.1,27.65,West,267,0.0,0.0,90,0.00,,,0.00,Wunderground v.1.15,2013-05-31 04:45:00,
2013-05-31 00:50:00,68.0,65.0,27.65,West,267,0.0,0.0,90,0.00,,,0.00,Wunderground v.1.15,2013-05-31 04:50:00,
2013-05-31 00:55:00,67.9,65.2,27.65,West,267,0.0,0.0,91,0.00,,,0.00,Wunderground v.1.15,2013-05-31 04:55:00,
2013-05-31 01:05:00,67.7,65.0,27.65,West,267,0.0,0.0,91,0.00,,,0.00,Wunderground v.1.15,2013-05-31 05:05:00,
2013-05-31 01:10:00,67.6,64.9,27.65,West,267,0.0,0.0,91,0.00,,,0.00,Wunderground v.1.15,2013-05-31 05:10:00,
2013-05-31 01:20:00,67.5,64.8,27.65,West,267,0.0,0.0,91,0.00,,,0.00,Wunderground v.1.15,2013-05-31 05:20:00,
2013-05-31 01:25:00,67.5,65.1,27.65,West,267,0.0,0.0,92,0.00,,,0.00,Wunderground v.1.15,2013-05-31 05:25:00,
2013-05-31 01:30:00,67.5,65.1,27.65,West,267,0.0,0.0,92,0.00,,,0.00,Wunderground v.1.15,2013-05-31 05:30:00,
2013-05-31 01:40:00,67.4,65.0,27.65,West,267,0.0,0.0,92,0.00,,,0.00,Wunderground v.1.15,2013-05-31 05:40:00,
2013-05-31 01:45:00,67.4,65.0,27.65,West,267,0.0,0.0,92,0.00,,,0.00,Wunderground v.1.15,2013-05-31 05:45:00,
2013-05-31 01:55:00,67.2,64.8,27.65,West,267,0.0,0.0,92,0.00,,,0.00,Wunderground v.1.15,2013-05-31 05:55:00,
2013-05-31 02:00:00,67.2,64.8,27.65,West,267,0.0,0.0,92,0.00,,,0.00,Wunderground v.1.15,2013-05-31 06:00:00,
2013-05-31 02:10:00,67.2,64.8,27.65,West,267,0.0,0.0,92,0.00,,,0.00,Wunderground v.1.15,2013-05-31 06:10:00,
2013-05-31 02:15:00,67.1,64.7,27.65,West,267,0.0,0.0,92,0.00,,,0.00,Wunderground v.1.15,2013-05-31 06:15:00,
2013-05-31 02:20:00,67.1,64.7,27.65,West,267,0.0,0.0,92,0.00,,,0.00,Wunderground v.1.15,2013-05-31 06:20:00,
2013-05-31 02:30:00,67.0,64.6,27.65,West,267,0.0,0.0,92,0.00,,,0.00,Wunderground v.1.15,2013-05-31 06:30:00,
2013-05-31 02:35:00,66.9,64.5,27.65,West,267,0.0,0.0,92,0.00,,,0.00,Wunderground v.1.15,2013-05-31 06:35:00,
2013-05-31 02:40:00,66.8,64.4,27.65,West,267,0.0,0.0,92,0.00,,,0.00,Wunderground v.1.15,2013-05-31 06:40:00,
2013-05-31 02:45:00,66.7,64.3,27.65,West,267,0.0,0.0,92,0.00,,,0.00,Wunderground v.1.15,2013-05-31 06:45:00,
2013-05-31 02:55:00,66.4,64.0,27.65,West,267,0.0,0.0,92,0.00,,,0.00,Wunderground v.1.15,2013-05-31 06:55:00,
2013-05-31 03:00:00,66.2,63.8,27.65,West,267,0.0,0.0,92,0.00,,,0.00,Wunderground v.1.15,2013-05-31 07:00:00,
2013-05-31 03:10:00,66.0,63.9,27.65,West,267,0.0,0.0,93,0.00,,,0.00,Wunderground v.1.15,2013-05-31 07:10:00,
2013-05-31 03:15:00,65.8,63.7,27.65,West,267,0.0,0.0,93,0.00,,,0.00,Wunderground v.1.15,2013-05-31 07:15:00,
2013-05-31 03:25:00,65.6,63.5,27.65,West,267,0.0,0.0,93,0.00,,,0.00,Wunderground v.1.15,2013-05-31 07:25:00,
2013-05-31 03:30:00,65.4,63.3,27.65,West,267,0.0,0.0,93,0.00,,,0.00,Wunderground v.1.15,2013-05-31 07:30:00,
2013-05-31 03:40:00,65.1,63.0,27.65,West,267,0.0,0.0,93,0.00,,,0.00,Wunderground v.1.15,2013-05-31 07:40:00,
2013-05-31 03:45:00,65.0,62.9,27.65,West,267,0.0,0.0,93,0.00,,,0.00,Wunderground v.1.15,2013-05-31 07:45:00,
2013-05-31 03:50:00,64.8,62.7,27.65,West,267,0.0,0.0,93,0.00,,,0.00,Wunderground v.1.15,2013-05-31 07:50:00,
2013-05-31 04:00:00,64.5,62.4,27.65,West,267,0.0,0.0,93,0.00,,,0.00,Wunderground v.1.15,2013-05-31 08:00:00,
2013-05-31 04:10:00,64.3,62.2,27.65,West,267,0.0,0.0,93,0.00,,,0.00,Wunderground v.1.15,2013-05-31 08:10:00,
2013-05-31 04:15:00,64.2,62.1,27.65,West,267,0.0,0.0,93,0.00,,,0.00,Wunderground v.1.15,2013-05-31 08:15:00,
2013-05-31 04:25:00,63.9,62.1,27.65,West,267,0.0,0.0,94,0.00,,,0.00,Wunderground v.1.15,2013-05-31 08:25:00,
2013-05-31 04:30:00,63.8,61.7,27.65,West,267,0.0,0.0,93,0.00,,,0.00,Wunderground v.1.15,2013-05-31 08:30:00,
2013-05-31 04:40:00,63.6,61.8,27.65,West,267,0.0,0.0,94,0.00,,,0.00,Wunderground v.1.15,2013-05-31 08:40:00,
2013-05-31 04:45:00,63.5,61.7,27.65,West,267,0.0,0.0,94,0.00,,,0.00,Wunderground v.1.15,2013-05-31 08:45:00,
2013-05-31 04:50:00,63.4,61.6,27.65,West,267,0.0,0.0,94,0.00,,,0.00,Wunderground v.1.15,2013-05-31 08:50:00,
2013-05-31 05:00:00,63.1,61.3,27.65,West,267,0.0,0.0,94,0.00,,,0.00,Wunderground v.1.15,2013-05-31 09:00:00,
2013-05-31 05:05:00,63.0,61.2,27.65,West,267,0.0,0.0,94,0.00,,,0.00,Wunderground v.1.15,2013-05-31 09:05:00,
2013-05-31 05:15:00,62.7,60.9,27.65,West,267,0.0,0.0,94,0.00,,,0.00,Wunderground v.1.15,2013-05-31 09:15:00,
2013-05-31 05:20:00,62.6,61.4,27.65,West,267,0.0,0.0,96,0.00,,,0.00,Wunderground v.1.15,2013-05-31 09:20:00,
2013-05-31 05:25:00,62.5,60.7,27.65,West,267,0.0,0.0,94,0.00,,,0.00,Wunderground v.1.15,2013-05-31 09:25:00,
2013-05-31 05:35:00,62.3,60.6,27.65,West,267,0.0,0.0,94,0.00,,,0.00,Wunderground v.1.15,2013-05-31 09:35:00,
2013-05-31 05:40:00,62.3,60.6,27.65,West,267,0.0,0.0,94,0.00,,,0.00,Wunderground v.1.15,2013-05-31 09:40:00,
2013-05-31 05:45:00,62.3,60.6,27.65,West,267,0.0,0.0,94,0.00,,,0.00,Wunderground v.1.15,2013-05-31 09:45:00,
2013-05-31 05:55:00,62.2,60.5,27.65,West,267,0.0,0.0,94,0.00,,,0.00,Wunderground v.1.15,2013-05-31 09:55:00,
2013-05-31 06:00:00,62.2,60.5,27.65,West,267,0.0,0.0,94,0.00,,,0.00,Wunderground v.1.15,2013-05-31 10:00:00,
2013-05-31 06:10:00,62.2,60.5,27.65,West,267,0.0,0.0,94,0.00,,,0.00,Wunderground v.1.15,2013-05-31 10:10:00,
2013-05-31 06:15:00,62.2,60.5,27.65,West,267,0.0,0.0,94,0.00,,,0.00,Wunderground v.1.15,2013-05-31 10:15:00,
2013-05-31 06:25:00,62.4,60.9,27.65,West,267,0.0,0.0,95,0.00,,,0.00,Wunderground v.1.15,2013-05-31 10:25:00,
2013-05-31 06:30:00,62.6,60.8,27.65,West,267,0.0,0.0,94,0.00,,,0.00,Wunderground v.1.15,2013-05-31 10:30:00,
2013-05-31 06:35:00,62.8,61.3,27.65,West,267,0.0,0.0,95,0.00,,,0.00,Wunderground v.1.15,2013-05-31 10:35:00,
2013-05-31 06:45:00,63.2,61.7,27.65,West,267,0.0,0.0,95,0.00,,,0.00,Wunderground v.1.15,2013-05-31 10:45:00,
2013-05-31 06:50:00,63.3,61.8,27.65,West,267,0.0,0.0,95,0.00,,,0.00,Wunderground v.1.15,2013-05-31 10:50:00,
2013-05-31 06:55:00,63.5,62.0,27.65,West,267,0.0,0.0,95,0.00,,,0.00,Wunderground v.1.15,2013-05-31 10:55:00,
2013-05-31 07:05:00,64.3,62.8,27.65,West,267,0.0,0.0,95,0.00,,,0.00,Wunderground v.1.15,2013-05-31 11:05:00,
2013-05-31 07:10:00,64.8,63.3,27.65,West,267,0.0,0.0,95,0.00,,,0.00,Wunderground v.1.15,2013-05-31 11:10:00,
2013-05-31 07:15:00,65.3,63.8,27.65,West,267,0.0,0.0,95,0.00,,,0.00,Wunderground v.1.15,2013-05-31 11:15:00,
2013-05-31 07:25:00,66.5,65.3,27.65,West,267,0.0,0.0,96,0.00,,,0.00,Wunderground v.1.15,2013-05-31 11:25:00,
2013-05-31 07:30:00,67.4,66.2,27.65,West,267,0.0,0.0,96,0.00,,,0.00,Wunderground v.1.15,2013-05-31 11:30:00,
2013-05-31 07:40:00,68.4,67.2,27.65,West,267,0.0,0.0,96,0.00,,,0.00,Wunderground v.1.15,2013-05-31 11:40:00,
2013-05-31 07:50:00,69.6,68.4,27.65,West,267,0.0,0.0,96,0.00,,,0.00,Wunderground v.1.15,2013-05-31 11:50:00,
2013-05-31 07:55:00,70.0,68.5,27.65,West,267,0.0,0.0,95,0.00,,,0.00,Wunderground v.1.15,2013-05-31 11:55:00,
2013-05-31 08:00:00,71.0,69.5,27.65,West,267,0.0,2.0,95,0.00,,,0.00,Wunderground v.1.15,2013-05-31 12:00:00,
2013-05-31 08:10:00,72.7,70.2,27.65,West,267,0.0,0.0,92,0.00,,,0.00,Wunderground v.1.15,2013-05-31 12:10:00,
2013-05-31 08:15:00,73.7,70.6,27.65,West,267,0.0,0.0,90,0.00,,,0.00,Wunderground v.1.15,2013-05-31 12:15:00,
2013-05-31 08:25:00,74.8,70.3,27.65,West,267,1.0,1.0,86,0.00,,,0.00,Wunderground v.1.15,2013-05-31 12:25:00,
2013-05-31 08:30:00,75.5,70.3,27.65,West,267,1.0,1.0,84,0.00,,,0.00,Wunderground v.1.15,2013-05-31 12:30:00,
2013-05-31 08:40:00,76.5,70.6,27.65,West,267,1.0,1.0,82,0.00,,,0.00,Wunderground v.1.15,2013-05-31 12:40:00,
2013-05-31 08:45:00,76.9,70.6,27.65,West,267,1.0,1.0,81,0.00,,,0.00,Wunderground v.1.15,2013-05-31 12:45:00,
2013-05-31 08:50:00,77.5,71.2,27.65,West,267,1.0,1.0,81,0.00,,,0.00,Wunderground v.1.15,2013-05-31 12:50:00,
2013-05-31 08:55:00,77.8,70.8,27.65,West,267,0.0,1.0,79,0.00,,,0.00,Wunderground v.1.15,2013-05-31 12:55:00,
2013-05-31 09:00:00,78.2,70.8,27.65,West,268,0.0,1.0,78,0.00,,,0.00,Wunderground v.1.15,2013-05-31 13:00:00,
2013-05-31 09:10:00,78.9,71.1,27.65,West,267,2.0,2.0,77,0.00,,,0.00,Wunderground v.1.15,2013-05-31 13:10:00,
2013-05-31 09:15:00,79.3,71.1,27.65,West,267,2.0,2.0,76,0.00,,,0.00,Wunderground v.1.15,2013-05-31 13:15:00,
2013-05-31 09:25:00,80.0,71.0,27.65,West,268,1.0,5.0,74,0.00,,,0.00,Wunderground v.1.15,2013-05-31 13:25:00,
2013-05-31 09:30:00,80.3,72.0,27.65,West,268,1.0,4.0,76,0.00,,,0.00,Wunderground v.1.15,2013-05-31 13:30:00,
2013-05-31 09:40:00,80.9,72.2,27.65,West,267,2.0,2.0,75,0.00,,,0.00,Wunderground v.1.15,2013-05-31 13:40:00,
2013-05-31 09:45:00,81.4,71.9,27.65,West,267,1.0,2.0,73,0.00,,,0.00,Wunderground v.1.15,2013-05-31 13:45:00,
2013-05-31 09:50:00,81.7,71.8,27.65,West,267,1.0,1.0,72,0.00,,,0.00,Wunderground v.1.15,2013-05-31 13:50:00,
2013-05-31 09:55:00,81.8,72.3,27.65,West,269,2.0,3.0,73,0.00,,,0.00,Wunderground v.1.15,2013-05-31 13:55:00,
2013-05-31 10:00:00,82.3,72.4,27.65,West,269,2.0,2.0,72,0.00,,,0.00,Wunderground v.1.15,2013-05-31 14:00:00,
2013-05-31 10:10:00,82.9,73.4,27.65,West,271,2.0,2.0,73,0.00,,,0.00,Wunderground v.1.15,2013-05-31 14:10:00,
2013-05-31 10:15:00,83.2,73.2,27.65,West,271,1.0,2.0,72,0.00,,,0.00,Wunderground v.1.15,2013-05-31 14:15:00,
2013-05-31 10:25:00,83.8,72.5,27.65,West,272,2.0,6.0,69,0.00,,,0.00,Wunderground v.1.15,2013-05-31 14:25:00,
2013-05-31 10:30:00,84.1,72.8,27.65,West,271,2.0,3.0,69,0.00,,,0.00,Wunderground v.1.15,2013-05-31 14:30:00,
2013-05-31 10:35:00,84.4,73.1,27.65,West,271,1.0,3.0,69,0.00,,,0.00,Wunderground v.1.15,2013-05-31 14:35:00,
2013-05-31 10:40:00,84.9,74.0,27.65,West,271,1.0,1.0,70,0.00,,,0.00,Wunderground v.1.15,2013-05-31 14:40:00,
2013-05-31 10:50:00,85.6,72.9,27.65,West,271,0.0,0.0,66,0.00,,,0.00,Wunderground v.1.15,2013-05-31 14:50:00,
2013-05-31 10:55:00,85.5,73.3,27.65,West,271,1.0,2.0,67,0.00,,,0.00,Wunderground v.1.15,2013-05-31 14:55:00,
2013-05-31 11:00:00,85.8,73.6,27.65,West,271,1.0,1.0,67,0.00,,,0.00,Wunderground v.1.15,2013-05-31 15:00:00,
2013-05-31 11:10:00,86.1,72.5,27.65,West,271,1.0,3.0,64,0.00,,,0.00,Wunderground v.1.15,2013-05-31 15:10:00,
2013-05-31 11:15:00,85.9,73.2,27.65,West,271,2.0,3.0,66,0.00,,,0.00,Wunderground v.1.15,2013-05-31 15:15:00,
2013-05-31 11:20:00,86.5,73.8,27.65,West,271,1.0,2.0,66,0.00,,,0.00,Wunderground v.1.15,2013-05-31 15:20:00,
2013-05-31 11:30:00,87.0,71.4,27.65,West,271,1.0,2.0,60,0.00,,,0.00,Wunderground v.1.15,2013-05-31 15:30:00,
2013-05-31 11:40:00,87.3,71.2,27.65,West,271,1.0,1.0,59,0.00,,,0.00,Wunderground v.1.15,2013-05-31 15:40:00,
2013-05-31 11:45:00,87.9,73.3,27.65,West,267,1.0,1.0,62,0.00,,,0.00,Wunderground v.1.15,2013-05-31 15:45:00,
2013-05-31 11:55:00,87.9,72.8,27.65,West,268,2.0,5.0,61,0.00,,,0.00,Wunderground v.1.15,2013-05-31 15:55:00,
2013-05-31 12:00:00,88.0,73.3,27.65,West,267,2.0,2.0,62,0.00,,,0.00,Wunderground v.1.15,2013-05-31 16:00:00,
2013-05-31 12:05:00,88.0,72.9,27.65,West,269,2.0,2.0,61,0.00,,,0.00,Wunderground v.1.15,2013-05-31 16:05:00,
2013-05-31 12:10:00,88.2,71.6,27.65,West,270,1.0,1.0,58,0.00,,,0.00,Wunderground v.1.15,2013-05-31 16:10:00,
2013-05-31 12:20:00,89.2,71.5,27.65,West,267,0.0,0.0,56,0.00,,,0.00,Wunderground v.1.15,2013-05-31 16:20:00,
2013-05-31 12:25:00,89.3,70.5,27.65,West,269,1.0,4.0,54,0.00,,,0.00,Wunderground v.1.15,2013-05-31 16:25:00,
2013-05-31 12:30:00,89.0,71.3,27.65,West,268,2.0,2.0,56,0.00,,,0.00,Wunderground v.1.15,2013-05-31 16:30:00,
2013-05-31 12:40:00,88.9,70.1,27.65,West,277,2.0,2.0,54,0.00,,,0.00,Wunderground v.1.15,2013-05-31 16:40:00,
2013-05-31 12:45:00,89.0,70.2,27.65,West,277,1.0,2.0,54,0.00,,,0.00,Wunderground v.1.15,2013-05-31 16:45:00,
2013-05-31 12:50:00,89.4,72.2,27.65,West,277,0.0,1.0,57,0.00,,,0.00,Wunderground v.1.15,2013-05-31 16:50:00,
2013-05-31 12:55:00,89.6,71.8,27.65,West,277,0.0,4.0,56,0.00,,,0.00,Wunderground v.1.15,2013-05-31 16:55:00,
2013-05-31 13:05:00,89.5,68.4,27.65,WSW,244,2.0,2.0,50,0.00,,,0.00,Wunderground v.1.15,2013-05-31 17:05:00,
2013-05-31 13:10:00,89.6,70.2,27.65,WSW,244,2.0,2.0,53,0.00,,,0.00,Wunderground v.1.15,2013-05-31 17:10:00,
2013-05-31 13:20:00,90.3,70.8,27.65,WSW,244,1.0,2.0,53,0.00,,,0.00,Wunderground v.1.15,2013-05-31 17:20:00,
2013-05-31 13:25:00,90.8,70.7,27.65,WSW,244,1.0,2.0,52,0.00,,,0.00,Wunderground v.1.15,2013-05-31 17:25:00,
2013-05-31 13:30:00,91.0,68.0,27.65,SW,236,1.0,1.0,47,0.00,,,0.00,Wunderground v.1.15,2013-05-31 17:30:00,
2013-05-31 13:35:00,90.7,67.7,27.65,SSW,202,1.0,1.0,47,0.00,,,0.00,Wunderground v.1.15,2013-05-31 17:35:00,
2013-05-31 13:45:00,90.1,68.4,27.65,SSW,199,1.0,1.0,49,0.00,,,0.00,Wunderground v.1.15,2013-05-31 17:45:00,
2013-05-31 13:50:00,89.7,68.6,27.65,WSW,252,1.0,1.0,50,0.00,,,0.00,Wunderground v.1.15,2013-05-31 17:50:00,
2013-05-31 13:55:00,89.5,68.4,27.65,WSW,250,1.0,1.0,50,0.00,,,0.00,Wunderground v.1.15,2013-05-31 17:55:00,
2013-05-31 14:00:00,89.4,68.9,27.65,WSW,250,0.0,0.0,51,0.00,,,0.00,Wunderground v.1.15,2013-05-31 18:00:00,
2013-05-31 14:10:00,89.3,69.4,27.65,WSW,250,1.0,1.0,52,0.00,,,0.00,Wunderground v.1.15,2013-05-31 18:10:00,
2013-05-31 14:15:00,89.3,69.4,27.65,WSW,238,1.0,1.0,52,0.00,,,0.00,Wunderground v.1.15,2013-05-31 18:15:00,
2013-05-31 14:20:00,89.5,70.1,27.65,WSW,238,1.0,1.0,53,0.00,,,0.00,Wunderground v.1.15,2013-05-31 18:20:00,
2013-05-31 14:30:00,89.8,69.8,27.65,West,275,1.0,1.0,52,0.00,,,0.00,Wunderground v.1.15,2013-05-31 18:30:00,
2013-05-31 14:35:00,90.1,69.0,27.65,SSW,212,1.0,1.0,50,0.00,,,0.00,Wunderground v.1.15,2013-05-31 18:35:00,
2013-05-31 14:40:00,90.8,70.2,27.65,SSW,211,0.0,0.0,51,0.00,,,0.00,Wunderground v.1.15,2013-05-31 18:40:00,
2013-05-31 14:45:00,91.3,69.5,27.65,SSW,213,0.0,0.0,49,0.00,,,0.00,Wunderground v.1.15,2013-05-31 18:45:00,
2013-05-31 14:55:00,90.0,65.8,27.65,SW,217,1.0,7.0,45,0.00,,,0.00,Wunderground v.1.15,2013-05-31 18:55:00,
2013-05-31 15:00:00,90.2,67.2,27.65,SW,218,1.0,1.0,47,0.00,,,0.00,Wunderground v.1.15,2013-05-31 19:00:00,
2013-05-31 15:10:00,91.5,67.8,27.65,WSW,254,1.0,4.0,46,0.00,,,0.00,Wunderground v.1.15,2013-05-31 19:10:00,
2013-05-31 15:15:00,91.8,68.1,27.65,WSW,244,1.0,4.0,46,0.00,,,0.00,Wunderground v.1.15,2013-05-31 19:15:00,
2013-05-31 15:20:00,91.7,66.0,27.65,WSW,246,1.0,1.0,43,0.00,,,0.00,Wunderground v.1.15,2013-05-31 19:20:00,
2013-05-31 15:25:00,91.3,67.6,27.65,West,261,2.0,7.0,46,0.00,,,0.00,Wunderground v.1.15,2013-05-31 19:25:00,
2013-05-31 15:35:00,90.2,66.0,27.65,WSW,258,1.0,1.0,45,0.00,,,0.00,Wunderground v.1.15,2013-05-31 19:35:00,
2013-05-31 15:40:00,89.9,65.7,27.65,WSW,243,1.0,1.0,45,0.00,,,0.00,Wunderground v.1.15,2013-05-31 19:40:00,
2013-05-31 15:45:00,89.7,65.5,27.65,WSW,245,0.0,5.0,45,0.00,,,0.00,Wunderground v.1.15,2013-05-31 19:45:00,
2013-05-31 15:55:00,89.6,66.7,27.65,West,273,1.0,1.0,47,0.00,,,0.00,Wunderground v.1.15,2013-05-31 19:55:00,
2013-05-31 16:00:00,90.0,67.7,27.65,WSW,238,1.0,1.0,48,0.00,,,0.00,Wunderground v.1.15,2013-05-31 20:00:00,
2013-05-31 16:10:00,91.2,68.2,27.65,WSW,249,1.0,1.0,47,0.00,,,0.00,Wunderground v.1.15,2013-05-31 20:10:00,
2013-05-31 16:15:00,91.9,68.2,27.65,WSW,250,0.0,1.0,46,0.00,,,0.00,Wunderground v.1.15,2013-05-31 20:15:00,
2013-05-31 16:20:00,92.4,69.9,27.65,SSW,210,0.0,3.0,48,0.00,,,0.00,Wunderground v.1.15,2013-05-31 20:20:00,
2013-05-31 16:30:00,90.5,68.1,27.65,SSW,196,1.0,1.0,48,0.00,,,0.00,Wunderground v.1.15,2013-05-31 20:30:00,
2013-05-31 16:35:00,89.7,68.0,27.65,SSW,196,0.0,1.0,49,0.00,,,0.00,Wunderground v.1.15,2013-05-31 20:35:00,
2013-05-31 16:40:00,89.9,66.3,27.65,SW,234,0.0,3.0,46,0.00,,,0.00,Wunderground v.1.15,2013-05-31 20:40:00,
2013-05-31 16:45:00,89.9,65.7,27.65,SW,234,0.0,3.0,45,0.00,,,0.00,Wunderground v.1.15,2013-05-31 20:45:00,
2013-05-31 16:55:00,88.9,66.7,27.65,WSW,240,1.0,4.0,48,0.00,,,0.00,Wunderground v.1.15,2013-05-31 20:55:00,
2013-05-31 17:00:00,88.9,66.7,27.65,West,259,1.0,1.0,48,0.00,,,0.00,Wunderground v.1.15,2013-05-31 21:00:00,
2013-05-31 17:10:00,90.0,67.7,27.65,WSW,248,1.0,4.0,48,0.00,,,0.00,Wunderground v.1.15,2013-05-31 21:10:00,
2013-05-31 17:15:00,90.1,68.4,27.65,WSW,248,1.0,6.0,49,0.00,,,0.00,Wunderground v.1.15,2013-05-31 21:15:00,
2013-05-31 17:20:00,90.0,68.9,27.65,WSW,248,1.0,1.0,50,0.00,,,0.00,Wunderground v.1.15,2013-05-31 21:20:00,
2013-05-31 17:25:00,90.3,70.3,27.65,WSW,249,1.0,1.0,52,0.00,,,0.00,Wunderground v.1.15,2013-05-31 21:25:00,
2013-05-31 17:35:00,91.1,69.9,27.65,SW,232,1.0,1.0,50,0.00,,,0.00,Wunderground v.1.15,2013-05-31 21:35:00,
2013-05-31 17:40:00,90.9,69.7,27.65,WSW,246,1.0,1.0,50,0.00,,,0.00,Wunderground v.1.15,2013-05-31 21:40:00,
2013-05-31 17:45:00,90.8,69.6,27.65,SW,234,1.0,1.0,50,0.00,,,0.00,Wunderground v.1.15,2013-05-31 21:45:00,
2013-05-31 17:55:00,90.4,68.6,27.65,SW,236,1.0,2.0,49,0.00,,,0.00,Wunderground v.1.15,2013-05-31 21:55:00,
2013-05-31 18:00:00,90.4,69.8,27.65,WSW,239,1.0,1.0,51,0.00,,,0.00,Wunderground v.1.15,2013-05-31 22:00:00,
2013-05-31 18:10:00,89.7,68.6,27.65,SSW,206,1.0,1.0,50,0.00,,,0.00,Wunderground v.1.15,2013-05-31 22:10:00,
2013-05-31 18:20:00,89.3,68.8,27.65,North,11,1.0,1.0,51,0.00,,,0.00,Wunderground v.1.15,2013-05-31 22:20:00,
2013-05-31 18:25:00,89.0,68.5,27.65,West,271,1.0,1.0,51,0.00,,,0.00,Wunderground v.1.15,2013-05-31 22:25:00,
2013-05-31 18:30:00,88.9,69.6,27.65,SW,225,1.0,1.0,53,0.00,,,0.00,Wunderground v.1.15,2013-05-31 22:30:00,
2013-05-31 18:40:00,89.2,69.8,27.65,SW,222,0.0,0.0,53,0.00,,,0.00,Wunderground v.1.15,2013-05-31 22:40:00,
2013-05-31 18:45:00,89.2,68.7,27.65,SW,226,0.0,4.0,51,0.00,,,0.00,Wunderground v.1.15,2013-05-31 22:45:00,
2013-05-31 18:50:00,88.7,65.9,27.65,WSW,242,1.0,1.0,47,0.00,,,0.00,Wunderground v.1.15,2013-05-31 22:50:00,
2013-05-31 18:55:00,87.8,65.1,27.65,WSW,253,1.0,3.0,47,0.00,,,0.00,Wunderground v.1.15,2013-05-31 22:55:00,
2013-05-31 19:00:00,87.1,65.0,27.65,WSW,244,1.0,1.0,48,0.00,,,0.00,Wunderground v.1.15,2013-05-31 23:00:00,
2013-05-31 19:10:00,86.3,65.5,27.65,West,276,1.0,1.0,50,0.00,,,0.00,Wunderground v.1.15,2013-05-31 23:10:00,
2013-05-31 19:15:00,86.1,65.9,27.65,West,276,1.0,1.0,51,0.00,,,0.00,Wunderground v.1.15,2013-05-31 23:15:00,
2013-05-31 19:25:00,85.6,65.4,27.65,West,273,1.0,1.0,51,0.00,,,0.00,Wunderground v.1.15,2013-05-31 23:25:00,
2013-05-31 19:30:00,84.9,65.9,27.65,West,272,0.0,0.0,53,0.00,,,0.00,Wunderground v.1.15,2013-05-31 23:30:00,
2013-05-31 19:35:00,84.1,66.2,27.65,West,272,0.0,0.0,55,0.00,,,0.00,Wunderground v.1.15,2013-05-31 23:35:00,
2013-05-31 19:40:00,83.4,65.5,27.65,West,273,0.0,0.0,55,0.00,,,0.00,Wunderground v.1.15,2013-05-31 23:40:00,
2013-05-31 19:50:00,82.5,66.2,27.65,West,277,1.0,1.0,58,0.00,,,0.00,Wunderground v.1.15,2013-05-31 23:50:00,
2013-05-31 19:55:00,82.1,65.9,27.65,West,277,0.0,1.0,58,0.00,,,0.00,Wunderground v.1.15,2013-05-31 23:55:00,
2013-05-31 20:00:00,81.6,65.9,27.65,West,276,0.0,0.0,59,0.00,,,0.00,Wunderground v.1.15,2013-06-01 00:00:00,
2013-05-31 20:10:00,80.9,65.7,27.65,West,275,1.0,1.0,60,0.00,,,0.00,Wunderground v.1.15,2013-06-01 00:10:00,
2013-05-31 20:15:00,80.4,65.2,27.65,West,275,0.0,1.0,60,0.00,,,0.00,Wunderground v.1.15,2013-06-01 00:15:00,
2013-05-31 20:25:00,79.5,64.9,27.65,West,275,0.0,0.0,61,0.00,,,0.00,Wunderground v.1.15,2013-06-01 00:25:00,
2013-05-31 20:30:00,79.1,65.0,27.65,West,275,0.0,0.0,62,0.00,,,0.00,Wunderground v.1.15,2013-06-01 00:30:00,
2013-05-31 20:35:00,78.7,64.6,27.65,West,275,0.0,0.0,62,0.00,,,0.00,Wunderground v.1.15,2013-06-01 00:35:00,
2013-05-31 20:40:00,78.3,64.7,27.65,West,275,0.0,0.0,63,0.00,,,0.00,Wunderground v.1.15,2013-06-01 00:40:00,
2013-05-31 20:45:00,77.9,64.7,27.65,West,275,0.0,0.0,64,0.00,,,0.00,Wunderground v.1.15,2013-06-01 00:45:00,
2013-05-31 20:55:00,76.9,64.7,27.65,West,275,0.0,0.0,66,0.00,,,0.00,Wunderground v.1.15,2013-06-01 00:55:00,
2013-05-31 21:00:00,76.3,64.5,27.65,West,275,0.0,0.0,67,0.00,,,0.00,Wunderground v.1.15,2013-06-01 01:00:00,
2013-05-31 21:10:00,75.1,64.2,27.65,West,275,0.0,0.0,69,0.00,,,0.00,Wunderground v.1.15,2013-06-01 01:10:00,
2013-05-31 21:20:00,74.0,64.4,27.65,West,275,0.0,0.0,72,0.00,,,0.00,Wunderground v.1.15,2013-06-01 01:20:00,
2013-05-31 21:25:00,73.4,64.6,27.65,West,275,0.0,0.0,74,0.00,,,0.00,Wunderground v.1.15,2013-06-01 01:25:00,
2013-05-31 21:30:00,72.9,64.1,27.65,West,275,0.0,0.0,74,0.00,,,0.00,Wunderground v.1.15,2013-06-01 01:30:00,
2013-05-31 21:40:00,72.1,63.7,27.65,West,275,0.0,0.0,75,0.00,,,0.00,Wunderground v.1.15,2013-06-01 01:40:00,
2013-05-31 21:45:00,71.7,63.7,27.65,West,275,0.0,0.0,76,0.00,,,0.00,Wunderground v.1.15,2013-06-01 01:45:00,
2013-05-31 21:55:00,71.0,63.4,27.65,West,275,0.0,0.0,77,0.00,,,0.00,Wunderground v.1.15,2013-06-01 01:55:00,
2013-05-31 22:00:00,70.6,63.4,27.65,West,275,0.0,0.0,78,0.00,,,0.00,Wunderground v.1.15,2013-06-01 02:00:00,
2013-05-31 22:05:00,70.3,63.1,27.65,West,275,0.0,0.0,78,0.00,,,0.00,Wunderground v.1.15,2013-06-01 02:05:00,
2013-05-31 22:15:00,69.8,63.0,27.65,West,275,0.0,0.0,79,0.00,,,0.00,Wunderground v.1.15,2013-06-01 02:15:00,
2013-05-31 22:20:00,69.5,63.1,27.65,West,275,0.0,0.0,80,0.00,,,0.00,Wunderground v.1.15,2013-06-01 02:20:00,
2013-05-31 22:30:00,69.0,63.3,27.65,West,275,0.0,0.0,82,0.00,,,0.00,Wunderground v.1.15,2013-06-01 02:30:00,
2013-05-31 22:40:00,68.6,63.2,27.65,West,275,0.0,0.0,83,0.00,,,0.00,Wunderground v.1.15,2013-06-01 02:40:00,
2013-05-31 22:45:00,68.4,63.0,27.65,West,275,0.0,0.0,83,0.00,,,0.00,Wunderground v.1.15,2013-06-01 02:45:00,
2013-05-31 22:50:00,68.3,63.3,27.65,West,275,0.0,0.0,84,0.00,,,0.00,Wunderground v.1.15,2013-06-01 02:50:00,
2013-05-31 23:00:00,68.0,63.0,27.65,West,275,0.0,0.0,84,0.00,,,0.00,Wunderground v.1.15,2013-06-01 03:00:00,
2013-05-31 23:10:00,68.1,63.4,27.65,West,275,0.0,0.0,85,0.00,,,0.00,Wunderground v.1.15,2013-06-01 03:10:00,
2013-05-31 23:15:00,68.3,63.9,27.65,West,275,0.0,0.0,86,0.00,,,0.00,Wunderground v.1.15,2013-06-01 03:15:00,
2013-05-31 23:25:00,68.9,64.5,27.65,West,275,0.0,0.0,86,0.00,,,0.00,Wunderground v.1.15,2013-06-01 03:25:00,
2013-05-31 23:30:00,69.6,65.2,27.65,West,275,0.0,0.0,86,0.00,,,0.00,Wunderground v.1.15,2013-06-01 03:30:00,
2013-05-31 23:40:00,70.9,66.2,27.65,West,275,0.0,0.0,85,0.00,,,0.00,Wunderground v.1.15,2013-06-01 03:40:00,
2013-05-31 23:50:00,71.9,66.5,27.65,West,275,0.0,0.0,83,0.00,,,0.00,Wunderground v.1.15,2013-06-01 03:50:00,
2013-05-31 23:55:00,71.9,66.1,27.65,West,275,0.0,0.0,82,0.00,,,0.00,Wunderground v.1.15,2013-06-01 03:55:00,